Other Surface Observations
Issued by NWS Missoula, MT

Home | Current Version | Previous Version | Text Only | Print | Product List | Glossary On
Versions: 1 2 3 4 5 6 7 8 9 10 11 12 13 14 15 16 17 18 19 20 21 22 23 24 25 26 27 28 29 30 31 32 33 34 35 36 37 38 39 40 41 42 43 44 45 46 47 48 49 50
000
SXUS55 KMSO 231023
OSOMSO
MONTANA AWOS SUMMARY
NATIONAL WEATHER SERVICE MISSOULA MT
322 AM MST WED APR 23 2014

Montana AWOS Reports

LAUREL      |K6S8 231015Z AUTO 27008KT 40SM 08/M01 A2954 RMK AO1 T00831005
ROUNDUP     |KRPX 231015Z AUTO 00000KT 7SM 08/02 A2948 RMK AO1 T00780022
MALTA       |KM75 231015Z AUTO 26017G23KT 25SM 09/06 A2943 RMK AO1 T00890056




USA.gov is the U.S. government's official web portal to all federal, state and local government web resources and services.